Time,TemperatureF,DewpointF,PressureIn,WindDirection,WindDirectionDegrees,WindSpeedMPH,WindSpeedGustMPH,Humidity,HourlyPrecipIn,Conditions,Clouds,dailyrainin,SoftwareType,DateUTC
2013-04-30 00:00:00,-999.0,-99.9,29.77,North,0,91.0,-999.0,-999,-99.99,,,-99.99,,2013-04-30 00:00:00,
2013-04-30 00:11:00,-999.0,-99.9,29.77,North,0,91.0,-999.0,-999,-99.99,,,-99.99,,2013-04-30 00:11:00,
2013-04-30 00:22:00,-999.0,-99.9,29.77,North,0,91.0,-999.0,-999,-99.99,,,-99.99,,2013-04-30 00:22:00,
2013-04-30 00:32:00,-999.0,-99.9,29.77,North,0,91.0,-999.0,-999,-99.99,,,-99.99,,2013-04-30 00:32:00,
2013-04-30 00:42:00,-999.0,-99.9,29.77,North,0,91.0,-999.0,-999,-99.99,,,-99.99,,2013-04-30 00:42:00,
2013-04-30 00:52:00,-999.0,-99.9,29.77,North,0,91.0,-999.0,-999,-99.99,,,-99.99,,2013-04-30 00:52:00,
2013-04-30 03:00:00,47.0,-99.9,29.73,East,80,17.0,-999.0,-999,-99.99,,,-99.99,,2013-04-30 03:00:00,
2013-04-30 03:11:00,47.0,-99.9,29.73,East,80,17.0,-999.0,-999,-99.99,,,-99.99,,2013-04-30 03:11:00,
2013-04-30 03:22:00,47.0,-99.9,29.73,East,80,17.0,-999.0,-999,-99.99,,,-99.99,,2013-04-30 03:22:00,
2013-04-30 03:33:00,47.0,-99.9,29.73,East,80,17.0,-999.0,-999,-99.99,,,-99.99,,2013-04-30 03:33:00,
2013-04-30 03:43:00,47.0,-99.9,29.73,East,80,17.0,-999.0,-999,-99.99,,,-99.99,,2013-04-30 03:43:00,
2013-04-30 03:53:00,47.0,-99.9,29.73,East,80,17.0,-999.0,-999,-99.99,,,-99.99,,2013-04-30 03:53:00,
2013-04-30 08:00:00,45.0,-99.9,29.62,NNE,20,10.0,-999.0,-999,-99.99,,,-99.99,,2013-04-30 08:00:00,
2013-04-30 08:22:00,45.0,-99.9,29.62,NNE,20,10.0,-999.0,-999,-99.99,,,-99.99,,2013-04-30 08:22:00,
2013-04-30 08:32:00,45.0,-99.9,29.62,NNE,20,10.0,-999.0,-999,-99.99,,,-99.99,,2013-04-30 08:32:00,
2013-04-30 08:42:00,45.0,-99.9,29.62,NNE,20,10.0,-999.0,-999,-99.99,,,-99.99,,2013-04-30 08:42:00,
2013-04-30 08:52:00,45.0,-99.9,29.62,NNE,20,10.0,-999.0,-999,-99.99,,,-99.99,,2013-04-30 08:52:00,
2013-04-30 09:00:00,34.0,-99.9,29.62,ENE,70,10.0,-999.0,-999,-99.99,,,-99.99,,2013-04-30 09:00:00,
2013-04-30 09:22:00,34.0,-99.9,29.62,ENE,70,10.0,-999.0,-999,-99.99,,,-99.99,,2013-04-30 09:22:00,
2013-04-30 09:33:00,34.0,-99.9,29.62,ENE,70,10.0,-999.0,-999,-99.99,,,-99.99,,2013-04-30 09:33:00,
2013-04-30 09:43:00,34.0,-99.9,29.62,ENE,70,10.0,-999.0,-999,-99.99,,,-99.99,,2013-04-30 09:43:00,
2013-04-30 09:52:00,34.0,-99.9,29.62,ENE,70,10.0,-999.0,-999,-99.99,,,-99.99,,2013-04-30 09:52:00,
2013-04-30 17:00:00,42.0,-99.9,29.53,NNE,30,2.0,-999.0,-999,-99.99,,,-99.99,,2013-04-30 17:00:00,
2013-04-30 17:22:00,42.0,-99.9,29.53,NNE,30,2.0,-999.0,-999,-99.99,,,-99.99,,2013-04-30 17:22:00,
2013-04-30 17:32:00,42.0,-99.9,29.53,NNE,30,2.0,-999.0,-999,-99.99,,,-99.99,,2013-04-30 17:32:00,
2013-04-30 17:42:00,42.0,-99.9,29.53,NNE,30,2.0,-999.0,-999,-99.99,,,-99.99,,2013-04-30 17:42:00,
2013-04-30 17:53:00,42.0,-99.9,29.53,NNE,30,2.0,-999.0,-999,-99.99,,,-99.99,,2013-04-30 17:53:00,
2013-04-30 18:00:00,53.0,-99.9,29.57,West,280,3.0,-999.0,-999,-99.99,,,-99.99,,2013-04-30 18:00:00,
2013-04-30 18:22:00,53.0,-99.9,29.57,West,280,3.0,-999.0,-999,-99.99,,,-99.99,,2013-04-30 18:22:00,
2013-04-30 18:32:00,53.0,-99.9,29.57,West,280,3.0,-999.0,-999,-99.99,,,-99.99,,2013-04-30 18:32:00,
2013-04-30 18:42:00,53.0,-99.9,29.57,West,280,3.0,-999.0,-999,-99.99,,,-99.99,,2013-04-30 18:42:00,
2013-04-30 18:52:00,53.0,-99.9,29.57,West,280,3.0,-999.0,-999,-99.99,,,-99.99,,2013-04-30 18:52:00,
2013-04-30 21:00:00,67.0,-99.9,29.64,WSW,250,23.0,-999.0,-999,-99.99,,,-99.99,,2013-04-30 21:00:00,
2013-04-30 21:22:00,67.0,-99.9,29.64,WSW,250,23.0,-999.0,-999,-99.99,,,-99.99,,2013-04-30 21:22:00,
2013-04-30 21:32:00,67.0,-99.9,29.64,WSW,250,23.0,-999.0,-999,-99.99,,,-99.99,,2013-04-30 21:32:00,
2013-04-30 21:42:00,67.0,-99.9,29.64,WSW,250,23.0,-999.0,-999,-99.99,,,-99.99,,2013-04-30 21:42:00,
2013-04-30 21:53:00,67.0,-99.9,29.64,WSW,250,23.0,-999.0,-999,-99.99,,,-99.99,,2013-04-30 21:53:00,
2013-04-30 22:00:00,67.0,-99.9,29.68,West,270,17.0,-999.0,-999,-99.99,,,-99.99,,2013-04-30 22:00:00,
2013-04-30 22:23:00,67.0,-99.9,29.68,West,270,17.0,-999.0,-999,-99.99,,,-99.99,,2013-04-30 22:23:00,
2013-04-30 22:33:00,67.0,-99.9,29.68,West,270,17.0,-999.0,-999,-99.99,,,-99.99,,2013-04-30 22:33:00,
2013-04-30 22:42:00,67.0,-99.9,29.68,West,270,17.0,-999.0,-999,-99.99,,,-99.99,,2013-04-30 22:42:00,
2013-04-30 22:53:00,67.0,-99.9,29.68,West,270,17.0,-999.0,-999,-99.99,,,-99.99,,2013-04-30 22:53:00,
2013-04-30 23:00:00,63.0,-99.9,29.73,SSW,210,15.0,-999.0,-999,-99.99,,,-99.99,,2013-04-30 23:00:00,
2013-04-30 23:22:00,63.0,-99.9,29.73,SSW,210,15.0,-999.0,-999,-99.99,,,-99.99,,2013-04-30 23:22:00,
2013-04-30 23:32:00,63.0,-99.9,29.73,SSW,210,15.0,-999.0,-999,-99.99,,,-99.99,,2013-04-30 23:32:00,
2013-04-30 23:42:00,63.0,-99.9,29.73,SSW,210,15.0,-999.0,-999,-99.99,,,-99.99,,2013-04-30 23:42:00,
2013-04-30 23:52:00,63.0,-99.9,29.73,SSW,210,15.0,-999.0,-999,-99.99,,,-99.99,,2013-04-30 23:52:00,